Agia Marina, Greece

5:41 PM EET on February 25, 2018 (GMT +0200)
Agia Marina

Weather History for 16667 - February, 2018

Change the Weather History Date:

Tuesday, February 13, 2018

  Actual Average Record
Temperature  
Mean Temperature 50 °F -  
Max Temperature 57 °F 57 °F - ()
Min Temperature 42 °F 46 °F - ()
Degree Days  
Heating Degree Days 16    
Moisture  
Dew Point 44 °F    
Average Humidity 69    
Maximum Humidity 82    
Minimum Humidity 46    
Precipitation  
Precipitation 0.00 in 0.12 in - ()
Sea Level Pressure  
Sea Level Pressure 30.01 in    
Wind  
Wind Speed 7 mph ()    
Max Wind Speed 18 mph    
Max Gust Speed -    
Visibility 6.2 miles    
Events      
T = Trace of Precipitation, MM = Missing Value Source: Averaged Metar Reports

Daily Weather History Graph

Daily Weather History Graph

Search for Another Location

Airport or City:

Trip Planner

Search our weather history database for the weather conditions in past years. The results will help you decide how hot, cold, wet, or windy it might be!

Date:

Astronomy

Feb. 13, 2018 Rise Set
Actual Time 7:07 AM EET 5:48 PM EET
Civil Twilight 6:40 AM EET 6:15 PM EET
Nautical Twilight 6:08 AM EET 6:47 PM EET
Astronomical Twilight 5:37 AM EET 7:18 PM EET
Moon 5:30 AM EET (2/13) 3:38 PM EET (2/13)
Length of Visible Light 11h 35m
Length of Day
10h 40m
Waning Crescent, 6% of the Moon is Illuminated
Feb 13
Waning Crescent
Feb 15
New
Feb 23
First Quarter
Mar 2
Full
Mar 9
Last Quarter

Hourly Weather History & Observations

Time (EET) Temp. Windchill Dew Point Humidity Pressure Visibility Wind Dir Wind Speed Gust Speed Precip Events Conditions
6:20 AM 42.8 °F 39.3 °F 37.4 °F 81% 30.01 in 6.2 mi SW 5.8 mph - N/A   Scattered Clouds
6:50 AM 42.8 °F 38.6 °F 37.4 °F 81% 30.01 in 6.2 mi SW 6.9 mph - N/A   Scattered Clouds
7:20 AM 42.8 °F 39.3 °F 37.4 °F 81% 30.01 in 6.2 mi SW 5.8 mph - N/A   Scattered Clouds
7:50 AM 42.8 °F 39.3 °F 37.4 °F 81% 30.01 in 6.2 mi SW 5.8 mph - N/A   Scattered Clouds
8:00 AM 44 °F - 37 °F 70% 30.02 in 6 mi SW 5.8 mph - -   Partly Cloudy
8:20 AM 44.6 °F 43.1 °F 39.2 °F 81% 30.01 in 6.2 mi Variable 3.5 mph - N/A   Scattered Clouds
8:50 AM 46.4 °F - 41.0 °F 81% 30.01 in 6.2 mi Variable 2.3 mph - N/A   Scattered Clouds
9:20 AM 48.2 °F - 42.8 °F 82% 30.04 in 6.2 mi Variable 2.3 mph - N/A   Scattered Clouds
9:50 AM 50.0 °F - 44.6 °F 82% 30.04 in 6.2 mi East 4.6 mph - N/A   Scattered Clouds
10:20 AM 51.8 °F - 46.4 °F 82% 30.04 in 6.2 mi East 5.8 mph - N/A   Scattered Clouds
10:50 AM 53.6 °F - 46.4 °F 77% 30.04 in 6.2 mi East 5.8 mph - N/A   Scattered Clouds
11:00 AM 54 °F - 46 °F 68% 30.04 in 6 mi East 5.8 mph - -   Partly Cloudy
11:20 AM 55.4 °F - 46.4 °F 72% 30.04 in 6.2 mi Variable 3.5 mph - N/A   Scattered Clouds
11:50 AM 57.2 °F - 46.4 °F 67% 30.04 in 6.2 mi East 5.8 mph - N/A   Partly Cloudy
12:20 PM 57.2 °F - 46.4 °F 67% 30.01 in 6.2 mi East 6.9 mph - N/A   Partly Cloudy
12:50 PM 57.2 °F - 44.6 °F 63% 30.01 in 6.2 mi ESE 6.9 mph - N/A   Partly Cloudy
1:20 PM 57.2 °F - 44.6 °F 63% 30.01 in 6.2 mi SE 10.4 mph - N/A   Partly Cloudy
1:50 PM 57.2 °F - 42.8 °F 59% 30.01 in 6.2 mi SE 10.4 mph - N/A   Partly Cloudy
2:00 PM 58 °F - 43 °F 46% 30.02 in 6 mi SE 10.4 mph - -   Scattered Clouds
2:20 PM 57.2 °F - 42.8 °F 59% 30.01 in 6.2 mi SE 10.4 mph - N/A   Partly Cloudy
2:50 PM 57.2 °F - 42.8 °F 59% 30.01 in 6.2 mi SSE 8.1 mph - N/A   Partly Cloudy
3:20 PM 57.2 °F - 42.8 °F 59% 30.01 in 6.2 mi SSE 8.1 mph - N/A   Partly Cloudy
3:50 PM 57.2 °F - 44.6 °F 63% 30.01 in 6.2 mi SSE 6.9 mph - N/A   Partly Cloudy
4:20 PM 57.2 °F - 44.6 °F 63% 30.01 in 6.2 mi SSE 6.9 mph - N/A   Partly Cloudy
4:50 PM 55.4 °F - 42.8 °F 63% 30.01 in 6.2 mi SSE 5.8 mph - N/A   Partly Cloudy
5:00 PM 56 °F - 44 °F 53% 30.02 in 6 mi SSE 5.8 mph - -   Scattered Clouds
5:20 PM 55.4 °F - 42.8 °F 63% 30.01 in 6.2 mi SSE 5.8 mph - N/A   Partly Cloudy
5:50 PM 53.6 °F - 42.8 °F 67% 30.01 in 6.2 mi SSE 6.9 mph - N/A   Partly Cloudy
6:20 PM 53.6 °F - 42.8 °F 67% 30.01 in 6.2 mi SSE 6.9 mph - N/A   Partly Cloudy
6:50 PM 55.4 °F - 42.8 °F 63% 30.01 in 6.2 mi South 9.2 mph - N/A   Partly Cloudy
7:20 PM 55.4 °F - 42.8 °F 63% 30.01 in 6.2 mi South 9.2 mph - N/A   Partly Cloudy
7:50 PM 55.4 °F - 42.8 °F 63% 29.98 in 6.2 mi SSE 10.4 mph - N/A   Partly Cloudy
8:00 PM 55 °F - 43 °F 55% 29.99 in 6 mi SSE 10.4 mph - -   Scattered Clouds
8:20 PM 55.4 °F - 42.8 °F 63% 29.98 in 6.2 mi SSE 10.4 mph - N/A   Partly Cloudy
8:50 PM 55.4 °F - 42.8 °F 63% 29.98 in 6.2 mi SSE 15.0 mph - N/A   Partly Cloudy
9:20 PM 55.4 °F - 42.8 °F 63% 29.98 in 6.2 mi SSE 15.0 mph - N/A   Partly Cloudy
9:50 PM 55.4 °F - 44.6 °F 67% 29.98 in 6.2 mi SSE 17.3 mph - N/A   Partly Cloudy
10:20 PM 55.4 °F - 44.6 °F 67% 29.98 in 6.2 mi SSE 17.3 mph - N/A   Partly Cloudy
10:50 PM 55.4 °F - 50.0 °F 82% 29.95 in 6.2 mi SSE 18.4 mph - N/A   Scattered Clouds
11:00 PM 55 °F - 49 °F 76% 29.96 in 6 mi SSE 18.4 mph - -   Partly Cloudy
11:20 PM 55.4 °F - 50.0 °F 82% 29.95 in 6.2 mi South 17.3 mph - N/A   Scattered Clouds
11:50 PM 55.4 °F - 50.0 °F 82% 29.95 in 6.2 mi SSE 17.3 mph - N/A   Scattered Clouds